ALE-1 (43938 NORAD) Tracking and Keplerian Element Data

This shows tracking and keplerian element data for the satellite.

Feedback or suggestion? Click here.




ElementValue
Catalog43938
NameALE-1
Epoch Orbit452
Epoch Day47.79398883
Epoch Year2019
RAAN109.2704
Inclination97.3005
Eccentricity0.0026552
Argument of Perigee141.1529
Mean Anonmoly356.2276
Mean Motion15.23240189
Decay Rate3.09E-06
L11 43938U 19003G 19047.79398883 .00000309 00000-0 15858-4 0 9999
L22 43938 97.3005 109.2704 0026552 141.1529 356.2276 15.23240189 4526

Live tracking and technical data element details for ALE-1 (NORAD 43938). ALE-1 can be tracked NOW for your location showing map with azimuth and elevation plus other details from your city location.

Track the satellite on the map from your city or location and see movement details for azimuth, elevation, latitude, longitude, range, height, and movement on the map or in text.







IsCatalogInMostPopularTable: catalog: 43938, numindb: 160
Update: records affected: 1



GetName: 43938 ALE-1

Hit Count: updated at: Sun, 21 Jul 2019 14:55:07 GMT